This demonstration page uses our WeatherBlox Daily Observations layout. Learn more.

Left ArrowRight Arrow

36.17497, -115.13722

Hourly Observations for January 10, 2021

Temp ( °F °C ) Dew Point ( °F °C ) Humidity (%) Winds ( mph kmh ) Pressure ( in mb ) Visibility ( mi km ) Precip ( " mm )
12:53 am 00:53 Clear 48 8.9 20 -6.7 33 33 NNW 8 13 30.28 1025 10 16 N/A
1:53 am 01:53 Clear 46 7.8 20 -6.7 35 35 NNW 10 17 30.29 1026 10 16 N/A
2:53 am 02:53 Clear 43 6.1 20 -6.7 40 40 WNW 6 9 30.30 1026 10 16 N/A
3:53 am 03:53 Clear 44 6.7 20 -6.7 38 38 NNW 13 20 30.29 1026 10 16 N/A
4:53 am 04:53 Clear 44 6.7 20 -6.7 38 38 NNW 16 26 30.31 1026 10 16 N/A
5:53 am 05:53 Clear 43 6.1 19 -7.2 38 38 NNW 12 19 30.32 1027 10 16 N/A
6:53 am 06:53 Sunny 43 6.1 19 -7.2 38 38 NNW 13 20 30.33 1027 10 16 N/A
7:53 am 07:53 Sunny 42 5.6 19 -7.2 40 40 NNW 8 13 30.36 1028 10 16 N/A
8:53 am 08:53 Sunny 48 8.9 20 -6.7 33 33 NNW 10 17 30.36 1028 10 16 N/A
9:53 am 09:53 Sunny 50 10 20 -6.7 30 30 NE 7 11 30.36 1028 10 16 N/A
10:53 am 10:53 Sunny 50 10 20 -6.7 30 30 N N/A 30.35 1028 10 16 N/A
11:53 am 11:53 Sunny 52 11.1 19 -7.2 27 27 VRB 3 6 30.31 1027 10 16 N/A
12:53 pm 12:53 Sunny 54 12.2 18 -7.8 24 24 VRB 3 6 30.28 1026 10 16 N/A
1:53 pm 13:53 Sunny 56 13.3 18 -7.8 22 22 VRB 3 6 30.27 1025 10 16 N/A
2:53 pm 14:53 Sunny 54 12.2 18 -7.8 24 24 N N/A 30.26 1025 10 16 N/A
3:53 pm 15:53 Sunny 55 12.8 17 -8.3 22 22 N N/A 30.24 1024 10 16 N/A
4:53 pm 16:53 Clear 54 12.2 17 -8.3 23 23 SW 3 6 30.25 1025 10 16 N/A
5:53 pm 17:53 Clear 52 11.1 17 -8.3 25 25 SSW 3 6 30.26 1025 10 16 N/A
6:53 pm 18:53 Clear 49 9.4 19 -7.2 31 31 W 8 13 30.28 1025 10 16 N/A
7:53 pm 19:53 Clear 45 7.2 20 -6.7 37 37 NW 7 11 30.29 1026 10 16 N/A
8:53 pm 20:53 Clear 44 6.7 19 -7.2 37 37 WNW 6 9 30.30 1026 10 16 N/A
9:53 pm 21:53 Clear 44 6.7 18 -7.8 35 35 NNW 7 11 30.31 1027 10 16 N/A
10:53 pm 22:53 Clear 43 6.1 19 -7.2 38 38 W 3 6 30.32 1027 10 16 N/A
11:53 pm 23:53 Clear 42 5.6 19 -7.2 40 40 NNW 7 11 30.31 1026 10 16 N/A

Powered by AerisWeather